Weather History for KFHU - March, 2014

Change the Weather History Date:

Saturday, March 1, 2014

  Actual Average Record
Temperature  
Mean Temperature 53 °F -  
Max Temperature 62 °F 61 °F 80 °F (1999)
Min Temperature 44 °F 39 °F 30 °F (1987)
Degree Days  
Heating Degree Days 12    
Growing Degree Days 3 (Base 50)    
Moisture  
Dew Point 43 °F    
Average Humidity 77    
Maximum Humidity 100    
Minimum Humidity 31    
Precipitation  
Precipitation 1.24 in - - ()
Sea Level Pressure  
Sea Level Pressure 29.94 in    
Wind  
Wind Speed 20 mph (SW)    
Max Wind Speed 38 mph    
Max Gust Speed 53 mph    
Visibility 5 miles    
Events Rain    
Averages and records for this station are not official NWS values.
T = Trace of Precipitation, MM = Missing Value Source: NWS Daily Summary

Daily Weather History Graph

Daily Weather History Graph

Search for Another Location

Airport or City:

Trip Planner

Search our weather history database for the weather conditions in past years. The results will help you decide how hot, cold, wet, or windy it might be!

Date:

Astronomy

Mar. 01, 2014 Rise Set
Actual Time 6:48 AM MST 6:19 PM MST
Civil Twilight 6:23 AM MST 6:43 PM MST
Nautical Twilight 5:55 AM MST 7:12 PM MST
Astronomical Twilight 5:27 AM MST 7:40 PM MST
Moon 6:47 AM MST 7:05 PM MST
Length of Visible Light 12h 20m
Length of Day
11h 31m
New Moon, 0% of the Moon is Illuminated
Mar 1
New Moon
Mar 8
First Quarter
Mar 16
Full
Mar 23
Last Quarter
Mar 30
New

Hourly Weather History & Observations

Time (MST) Temp. Windchill Dew Point Humidity Pressure Visibility Wind Dir Wind Speed Gust Speed Precip Events Conditions
12:56 AM 59.0 °F - 28.0 °F 31% 29.84 in 10.0 mi Variable 5.8 mph - N/A   Clear
1:56 AM 59.0 °F - 34.0 °F 39% 29.83 in 10.0 mi SSW 16.1 mph 26.5 mph N/A   Clear
2:56 AM 59.0 °F - 35.1 °F 41% 29.81 in 10.0 mi SSW 18.4 mph 24.2 mph N/A   Clear
3:56 AM 59.0 °F - 28.9 °F 32% 29.79 in 10.0 mi SSW 24.2 mph 31.1 mph N/A   Clear
4:56 AM 57.9 °F - 33.1 °F 39% 29.79 in 10.0 mi SSW 28.8 mph 41.4 mph N/A   Clear
5:56 AM 57.9 °F - 34.0 °F 41% 29.80 in 10.0 mi SW 32.2 mph 47.2 mph N/A   Clear
6:56 AM 57.0 °F - 36.0 °F 45% 29.81 in 10.0 mi SSW 33.4 mph 47.2 mph N/A   Clear
7:56 AM 57.9 °F - 37.0 °F 46% 29.83 in 10.0 mi SSW 38.0 mph 49.5 mph N/A   Clear
8:56 AM 59.0 °F - 37.0 °F 44% 29.84 in 10.0 mi SW 38.0 mph 50.6 mph N/A   Clear
9:56 AM 61.0 °F - 41.0 °F 48% 29.86 in 9.0 mi SSW 38.0 mph 52.9 mph 0.00 in Rain Light Rain
10:56 AM 62.1 °F - 39.0 °F 43% 29.88 in 10.0 mi SW 28.8 mph 39.1 mph 0.00 in   Clear
11:56 AM 52.0 °F - 46.9 °F 83% 29.94 in 4.0 mi West 28.8 mph 38.0 mph 0.01 in Rain Rain
12:02 PM 50.0 °F - 46.4 °F 87% 30.03 in 2.0 mi West 28.8 mph 39.1 mph 0.02 in Rain Rain
12:16 PM 51.8 °F - 46.4 °F 82% 30.04 in 3.0 mi WSW 26.5 mph 40.3 mph 0.04 in Rain Rain
12:56 PM 50.0 °F - 48.9 °F 96% 29.97 in 2.0 mi West 17.3 mph 26.5 mph 0.09 in Rain Heavy Rain
1:04 PM 48.2 °F - 46.4 °F 93% 30.05 in 1.8 mi West 19.6 mph 26.5 mph 0.04 in Rain Heavy Rain
1:12 PM 48.2 °F - 46.4 °F 93% 30.04 in 1.5 mi West 17.3 mph 26.5 mph 0.08 in Rain Heavy Rain
1:22 PM 48.2 °F - 46.4 °F 93% 30.04 in 2.0 mi West 16.1 mph - 0.12 in Rain Rain
1:42 PM 48.2 °F - 48.2 °F 100% 30.03 in 3.0 mi West 9.2 mph - 0.17 in Rain Rain
1:54 PM 48.2 °F - 48.2 °F 100% 30.02 in 2.5 mi West 9.2 mph - 0.19 in Rain Rain
1:56 PM 48.9 °F - 48.0 °F 97% 29.94 in 2.5 mi West 10.4 mph - 0.20 in Rain Rain
2:08 PM 50.0 °F - 48.2 °F 94% 30.01 in 1.8 mi SW 16.1 mph 21.9 mph 0.04 in Rain Heavy Rain
2:18 PM 51.8 °F - 46.4 °F 82% 30.00 in 2.5 mi SSW 20.7 mph 31.1 mph 0.06 in Rain Rain
2:27 PM 51.8 °F - 46.4 °F 82% 30.00 in 3.0 mi SW 23.0 mph 33.4 mph 0.08 in Rain Rain
2:56 PM 53.1 °F - 48.9 °F 86% 29.90 in 6.0 mi SW 13.8 mph 20.7 mph 0.10 in Rain Light Rain
3:23 PM 51.8 °F - 46.4 °F 82% 29.99 in 2.5 mi WSW 8.1 mph - 0.04 in Rain Rain
3:32 PM 51.8 °F - 46.4 °F 82% 29.98 in 4.0 mi WSW 13.8 mph 18.4 mph 0.05 in Rain Light Rain
3:56 PM 52.0 °F - 48.0 °F 86% 29.87 in 5.0 mi SW 19.6 mph 33.4 mph 0.07 in Rain Light Rain
4:56 PM 51.1 °F - 46.9 °F 86% 29.88 in 3.0 mi SSW 13.8 mph - 0.05 in Rain Rain
5:42 PM 50.0 °F - 46.4 °F 87% 29.97 in 2.5 mi SSW 27.6 mph 40.3 mph 0.08 in Rain Rain
5:56 PM 50.0 °F - 46.0 °F 86% 29.89 in 2.5 mi SW 23.0 mph 32.2 mph 0.11 in Rain Rain
6:20 PM 50.0 °F - 46.4 °F 87% 29.98 in 4.0 mi SSW 19.6 mph 33.4 mph 0.05 in Rain Rain
6:56 PM 48.9 °F - 46.9 °F 93% 29.92 in 3.0 mi WSW 11.5 mph 23.0 mph 0.14 in Rain Rain
7:23 PM 46.4 °F 40.1 °F 44.6 °F 93% 30.00 in 5.0 mi West 15.0 mph - 0.07 in Rain Rain
7:56 PM 46.0 °F 41.0 °F 45.0 °F 96% 29.94 in 6.0 mi West 10.4 mph - 0.11 in Rain Rain
8:03 PM 46.4 °F 42.4 °F 44.6 °F 93% 30.00 in 5.0 mi West 8.1 mph - 0.01 in Rain Rain
8:56 PM 46.9 °F - 44.1 °F 90% 29.93 in 3.0 mi WSW 15.0 mph 26.5 mph 0.10 in Rain Heavy Rain
9:06 PM 46.4 °F 39.8 °F 44.6 °F 93% 30.01 in 2.0 mi WSW 16.1 mph 24.2 mph 0.06 in Rain Heavy Rain
9:18 PM 46.4 °F 38.3 °F 42.8 °F 87% 30.02 in 3.0 mi SW 23.0 mph 36.8 mph 0.12 in Rain Heavy Rain
9:23 PM 46.4 °F 38.1 °F 42.8 °F 87% 30.01 in 2.0 mi SW 24.2 mph 36.8 mph 0.17 in Rain Heavy Rain
9:27 PM 44.6 °F 34.4 °F 42.8 °F 93% 30.01 in 1.5 mi SW 32.2 mph 48.3 mph 0.21 in Rain Heavy Rain
9:37 PM 46.4 °F 37.5 °F 42.8 °F 87% 29.93 in 2.0 mi South 27.6 mph 49.5 mph 0.26 in Rain Light Rain
9:39 PM 46.4 °F 37.2 °F 42.8 °F 87% 29.93 in 3.0 mi South 29.9 mph 49.5 mph 0.26 in Rain Light Rain
9:56 PM 50.0 °F - 45.0 °F 83% 29.86 in 10.0 mi SSW 24.2 mph 43.7 mph 0.26 in   Mostly Cloudy
10:56 PM 48.9 °F - 42.1 °F 77% 29.91 in 10.0 mi WSW 12.7 mph 23.0 mph N/A   Scattered Clouds
11:56 PM 48.9 °F - 37.9 °F 66% 29.92 in 10.0 mi SW 19.6 mph 31.1 mph N/A   Partly Cloudy